Hourly Weather Iksal

Today, 1 October, Thursday

Time Temperature Precipitation Wind Pressure Humidity
00:00 +24°C° 0 mm 1 mps 744 mmHg 88%
01:00 +24°C° 0 mm 1 mps 744 mmHg 88%
02:00 +24°C° 0 mm 1 mps 744 mmHg 90%
03:00 +24°C° 0 mm 1 mps 744 mmHg 90%
04:00 +24°C° 0 mm 1 mps 744 mmHg 90%
05:00 +23°C° 0 mm 1 mps 744 mmHg 90%
06:00 +25°C° 0 mm 1 mps 745 mmHg 82%
07:00 +27°C° 0 mm 1 mps 745 mmHg 74%
08:00 +28°C° 0 mm 1 mps 745 mmHg 67%
09:00 +30°C° 0 mm 2 mps 745 mmHg 59%
10:00 +33°C° 0 mm 3 mps 745 mmHg 52%
11:00 +34°C° 0 mm 3 mps 745 mmHg 44%
12:00 +34°C° 0 mm 4 mps 745 mmHg 44%
13:00 +34°C° 0 mm 5 mps 745 mmHg 45%
14:00 +34°C° 0 mm 6 mps 744 mmHg 45%
15:00 +32°C° 0 mm 6 mps 744 mmHg 50%
16:00 +30°C° 0 mm 5 mps 744 mmHg 55%
17:00 +28°C° 0 mm 5 mps 744 mmHg 60%
18:00 +27°C° 0 mm 4 mps 745 mmHg 66%
19:00 +25°C° 0 mm 2 mps 745 mmHg 72%
20:00 +24°C° 0 mm 1 mps 746 mmHg 78%
21:00 +23°C° 0 mm 1 mps 746 mmHg 79%
22:00 +23°C° 0 mm 1 mps 746 mmHg 81%
23:00 +22°C° 0 mm 1 mps 746 mmHg 82%

Tomorrow, 2 October, Friday

Time Temperature Precipitation Wind Pressure Humidity
00:00 +22°C° 0 mm 1 mps 746 mmHg 82%
01:00 +20°C° 0 mm 0 mps 746 mmHg 83%
02:00 +19°C° 0 mm 0 mps 746 mmHg 83%
03:00 +19°C° 0 mm 0 mps 746 mmHg 83%
04:00 +19°C° 0 mm 0 mps 746 mmHg 84%
05:00 +19°C° 0 mm 0 mps 746 mmHg 84%
06:00 +21°C° 0 mm 0 mps 747 mmHg 76%
07:00 +22°C° 0 mm 0 mps 747 mmHg 68%
08:00 +26°C° 0 mm 1 mps 747 mmHg 60%
09:00 +28°C° 0 mm 1 mps 747 mmHg 53%
10:00 +30°C° 0 mm 2 mps 747 mmHg 46%
11:00 +33°C° 0 mm 3 mps 748 mmHg 39%
12:00 +33°C° 0 mm 4 mps 747 mmHg 39%
13:00 +33°C° 0 mm 5 mps 747 mmHg 39%
14:00 +33°C° 0 mm 6 mps 747 mmHg 40%
15:00 +32°C° 0 mm 5 mps 747 mmHg 44%
16:00 +29°C° 0 mm 5 mps 747 mmHg 49%
17:00 +28°C° 0 mm 5 mps 747 mmHg 54%
18:00 +26°C° 0 mm 4 mps 747 mmHg 60%
19:00 +24°C° 0 mm 3 mps 748 mmHg 67%
20:00 +23°C° 0 mm 2 mps 748 mmHg 73%
21:00 +21°C° 0 mm 2 mps 748 mmHg 75%
22:00 +22°C° 0 mm 1 mps 748 mmHg 77%
23:00 +21°C° 0 mm 1 mps 748 mmHg 79%

Day after tomorrow, 3 October, Saturday

Time Temperature Precipitation Wind Pressure Humidity
00:00 +21°C° 0 mm 1 mps 748 mmHg 80%
01:00 +21°C° 0 mm 1 mps 748 mmHg 81%
02:00 +19°C° 0 mm 0 mps 748 mmHg 83%
03:00 +18°C° 0 mm 0 mps 748 mmHg 83%
04:00 +18°C° 0 mm 0 mps 748 mmHg 84%
05:00 +18°C° 0 mm 0 mps 748 mmHg 85%
06:00 +20°C° 0 mm 0 mps 748 mmHg 77%
07:00 +22°C° 0 mm 0 mps 748 mmHg 68%
08:00 +24°C° 0 mm 0 mps 749 mmHg 60%
09:00 +28°C° 0 mm 1 mps 749 mmHg 53%
10:00 +30°C° 0 mm 2 mps 749 mmHg 46%
11:00 +33°C° 0 mm 3 mps 749 mmHg 38%
12:00 +32°C° 0 mm 4 mps 748 mmHg 40%
13:00 +32°C° 0 mm 5 mps 748 mmHg 42%
14:00 +32°C° 0 mm 7 mps 747 mmHg 43%
15:00 +30°C° 0 mm 6 mps 747 mmHg 48%
16:00 +29°C° 0 mm 5 mps 747 mmHg 52%
17:00 +27°C° 0 mm 4 mps 747 mmHg 57%
18:00 +26°C° 0 mm 3 mps 748 mmHg 63%
19:00 +24°C° 0 mm 2 mps 748 mmHg 69%
20:00 +23°C° 0 mm 2 mps 748 mmHg 75%
21:00 +22°C° 0 mm 1 mps 748 mmHg 76%
22:00 +22°C° 0 mm 1 mps 748 mmHg 77%
23:00 +21°C° 0 mm 1 mps 748 mmHg 78%

4 October, Sunday

Time Temperature Precipitation Wind Pressure Humidity
00:00 +21°C° 0 mm 1 mps 748 mmHg 79%
01:00 +21°C° 0 mm 1 mps 748 mmHg 80%
02:00 +21°C° 0 mm 1 mps 748 mmHg 80%
03:00 +19°C° 0 mm 0 mps 748 mmHg 81%
04:00 +19°C° 0 mm 0 mps 748 mmHg 82%
05:00 +18°C° 0 mm 0 mps 748 mmHg 83%
06:00 +20°C° 0 mm 0 mps 748 mmHg 75%
07:00 +22°C° 0 mm 0 mps 748 mmHg 68%
08:00 +26°C° 0 mm 1 mps 749 mmHg 60%
09:00 +28°C° 0 mm 1 mps 748 mmHg 53%
10:00 +30°C° 0 mm 2 mps 748 mmHg 47%
11:00 +31°C° 0 mm 3 mps 748 mmHg 41%
12:00 +32°C° 0 mm 4 mps 748 mmHg 42%
13:00 +32°C° 0 mm 6 mps 747 mmHg 42%
14:00 +32°C° 0 mm 7 mps 747 mmHg 43%
15:00 +30°C° 0 mm 6 mps 747 mmHg 48%
16:00 +29°C° 0 mm 5 mps 747 mmHg 53%
17:00 +27°C° 0 mm 4 mps 747 mmHg 58%
18:00 +26°C° 0 mm 4 mps 747 mmHg 65%
19:00 +24°C° 0 mm 3 mps 747 mmHg 72%
20:00 +23°C° 0 mm 2 mps 748 mmHg 79%
21:00 +23°C° 0 mm 1 mps 748 mmHg 81%
22:00 +22°C° 0 mm 1 mps 748 mmHg 82%
23:00 +22°C° 0 mm 1 mps 747 mmHg 83%

5 October, Monday

Time Temperature Precipitation Wind Pressure Humidity
00:00 +22°C° 0 mm 1 mps 747 mmHg 84%
01:00 +20°C° 0 mm 0 mps 747 mmHg 85%
02:00 +19°C° 0 mm 0 mps 747 mmHg 85%
03:00 +19°C° 0 mm 0 mps 747 mmHg 86%
04:00 +19°C° 0 mm 0 mps 747 mmHg 86%
05:00 +19°C° 0 mm 0 mps 747 mmHg 87%
06:00 +20°C° 0 mm 0 mps 747 mmHg 79%
07:00 +24°C° 0 mm 1 mps 748 mmHg 72%
08:00 +26°C° 0 mm 1 mps 748 mmHg 65%
09:00 +28°C° 0 mm 1 mps 748 mmHg 56%
10:00 +30°C° 0 mm 2 mps 748 mmHg 48%
11:00 +32°C° 0 mm 2 mps 747 mmHg 40%
12:00 +33°C° 0 mm 3 mps 747 mmHg 39%
13:00 +34°C° 0 mm 4 mps 747 mmHg 39%
14:00 +34°C° 0 mm 5 mps 746 mmHg 39%
15:00 +32°C° 0 mm 5 mps 746 mmHg 44%
16:00 +30°C° 0 mm 5 mps 746 mmHg 50%
17:00 +28°C° 0 mm 4 mps 745 mmHg 56%
18:00 +26°C° 0 mm 3 mps 746 mmHg 63%
19:00 +25°C° 0 mm 2 mps 746 mmHg 70%
20:00 +23°C° 0 mm 2 mps 746 mmHg 78%
21:00 +23°C° 0 mm 1 mps 746 mmHg 78%
22:00 +22°C° 0 mm 1 mps 746 mmHg 78%
23:00 +22°C° 0 mm 1 mps 746 mmHg 78%

6 October, Tuesday

Time Temperature Precipitation Wind Pressure Humidity
00:00 +21°C° 0 mm 1 mps 745 mmHg 79%
01:00 +21°C° 0 mm 1 mps 745 mmHg 80%
02:00 +19°C° 0 mm 0 mps 745 mmHg 81%
03:00 +19°C° 0 mm 0 mps 745 mmHg 81%
04:00 +18°C° 0 mm 0 mps 745 mmHg 81%
05:00 +18°C° 0 mm 0 mps 745 mmHg 82%
06:00 +22°C° 0 mm 1 mps 746 mmHg 74%
07:00 +24°C° 0 mm 1 mps 746 mmHg 66%
08:00 +26°C° 0 mm 1 mps 746 mmHg 58%
09:00 +28°C° 0 mm 1 mps 746 mmHg 50%
10:00 +30°C° 0 mm 2 mps 746 mmHg 41%
11:00 +34°C° 0 mm 2 mps 746 mmHg 33%
12:00 +34°C° 0 mm 3 mps 745 mmHg 33%
13:00 +34°C° 0 mm 4 mps 745 mmHg 33%
14:00 +34°C° 0 mm 6 mps 744 mmHg 33%
15:00 +32°C° 0 mm 5 mps 744 mmHg 40%
16:00 +29°C° 0 mm 4 mps 744 mmHg 46%
17:00 +28°C° 0 mm 4 mps 744 mmHg 52%
18:00 +26°C° 0 mm 3 mps 744 mmHg 60%
19:00 +24°C° 0 mm 2 mps 744 mmHg 68%
20:00 +23°C° 0 mm 1 mps 745 mmHg 77%
21:00 +22°C° 0 mm 1 mps 745 mmHg 78%
22:00 +22°C° 0 mm 1 mps 745 mmHg 79%
23:00 +20°C° 0 mm 0 mps 745 mmHg 81%
Show more